TimeCDT,TemperatureF,Dew PointF,Humidity,Sea Level PressureIn,VisibilityMPH,Wind Direction,Wind SpeedMPH,Gust SpeedMPH,PrecipitationIn,Events,Conditions,WindDirDegrees,DateUTC
12:15 AM,53.6,51.8,94,30.12,10.0,Calm,Calm,-,N/A,,Unknown,0,2013-08-10 05:15:00
12:35 AM,51.8,50.2,94,30.12,10.0,ESE,3.5,-,N/A,,Unknown,110,2013-08-10 05:35:00
12:55 AM,51.8,51.8,100,30.12,10.0,Calm,Calm,-,N/A,,Unknown,0,2013-08-10 05:55:00
1:15 AM,51.8,50.0,94,30.13,10.0,Calm,Calm,-,N/A,,Unknown,0,2013-08-10 06:15:00
1:35 AM,49.6,48.7,97,30.13,10.0,Calm,Calm,-,N/A,,Unknown,0,2013-08-10 06:35:00
1:55 AM,50.0,48.2,94,30.13,10.0,Calm,Calm,-,N/A,,Unknown,0,2013-08-10 06:55:00
2:15 AM,48.2,48.2,100,30.14,10.0,Calm,Calm,-,N/A,,Unknown,0,2013-08-10 07:15:00
2:35 AM,50.0,48.2,94,30.14,10.0,Calm,Calm,-,N/A,,Unknown,0,2013-08-10 07:35:00
2:55 AM,51.8,48.2,88,30.14,10.0,Calm,Calm,-,N/A,,Unknown,0,2013-08-10 07:55:00
3:35 AM,51.8,51.8,100,30.15,10.0,Calm,Calm,-,N/A,,Unknown,0,2013-08-10 08:35:00
3:55 AM,52.9,51.4,95,30.16,10.0,Calm,Calm,-,N/A,,Unknown,0,2013-08-10 08:55:00
4:15 AM,52.7,51.1,94,30.16,10.0,Calm,Calm,-,N/A,,Unknown,0,2013-08-10 09:15:00
4:35 AM,52.2,50.9,95,30.15,10.0,Calm,Calm,-,N/A,,Unknown,0,2013-08-10 09:35:00
4:55 AM,52.5,50.9,94,30.16,10.0,Calm,Calm,-,N/A,,Unknown,0,2013-08-10 09:55:00
5:35 AM,53.6,51.8,94,30.16,10.0,Calm,Calm,-,N/A,,Unknown,0,2013-08-10 10:35:00
5:55 AM,53.6,51.8,94,30.16,10.0,Calm,Calm,-,N/A,,Unknown,0,2013-08-10 10:55:00
6:15 AM,53.6,51.8,94,30.17,10.0,Calm,Calm,-,N/A,,Unknown,0,2013-08-10 11:15:00
6:35 AM,53.6,51.8,94,30.17,10.0,Calm,Calm,-,N/A,,Unknown,0,2013-08-10 11:35:00
6:55 AM,53.6,53.6,100,30.17,10.0,Calm,Calm,-,N/A,,Unknown,0,2013-08-10 11:55:00
7:36 AM,55.4,53.6,94,30.17,10.0,Calm,Calm,-,N/A,,Unknown,0,2013-08-10 12:36:00
7:55 AM,57.2,53.6,88,30.18,10.0,Calm,Calm,-,N/A,,Unknown,0,2013-08-10 12:55:00
8:15 AM,59.0,55.4,88,30.18,10.0,Calm,Calm,-,N/A,,Unknown,0,2013-08-10 13:15:00
8:35 AM,60.8,53.6,77,30.17,10.0,Calm,Calm,-,N/A,,Unknown,0,2013-08-10 13:35:00
8:55 AM,62.6,53.6,72,30.17,10.0,Calm,Calm,-,N/A,,Unknown,0,2013-08-10 13:55:00
9:15 AM,64.4,53.6,68,30.17,10.0,Calm,Calm,-,N/A,,Unknown,0,2013-08-10 14:15:00
9:34 AM,68.0,53.6,60,30.18,10.0,NW,3.5,-,N/A,,Unknown,310,2013-08-10 14:34:00
9:55 AM,68.4,53.1,58,30.18,10.0,North,5.8,-,N/A,,Unknown,10,2013-08-10 14:55:00
10:34 AM,71.6,50.0,46,30.18,10.0,NW,8.1,-,N/A,,Unknown,320,2013-08-10 15:34:00
10:55 AM,71.6,49.1,45,30.18,10.0,NW,6.9,-,N/A,,Unknown,310,2013-08-10 15:55:00
11:15 AM,71.1,49.3,46,30.19,10.0,West,6.9,-,N/A,,Unknown,270,2013-08-10 16:15:00
11:35 AM,71.8,48.7,44,30.19,10.0,NW,3.5,16.1,N/A,,Unknown,320,2013-08-10 16:35:00
11:55 AM,72.9,49.3,43,30.19,10.0,NNW,6.9,-,N/A,,Unknown,340,2013-08-10 16:55:00
12:15 PM,70.7,48.7,46,30.19,10.0,NW,5.8,-,N/A,,Unknown,310,2013-08-10 17:15:00
12:35 PM,70.9,48.4,45,30.18,10.0,North,5.8,-,N/A,,Unknown,360,2013-08-10 17:35:00
1:35 PM,72.3,46.6,40,30.18,10.0,WNW,4.6,-,N/A,,Unknown,290,2013-08-10 18:35:00
1:55 PM,72.5,49.5,44,30.18,10.0,WNW,6.9,-,N/A,,Unknown,300,2013-08-10 18:55:00
2:15 PM,71.8,49.1,45,30.18,10.0,NW,6.9,-,N/A,,Unknown,310,2013-08-10 19:15:00
2:35 PM,73.4,45.0,36,30.18,10.0,NNW,4.6,-,N/A,,Unknown,340,2013-08-10 19:35:00
2:55 PM,73.9,49.3,42,30.17,10.0,West,3.5,-,N/A,,Unknown,280,2013-08-10 19:55:00
3:15 PM,74.1,48.4,40,30.17,10.0,NW,5.8,-,N/A,,Unknown,310,2013-08-10 20:15:00
3:54 PM,73.4,50.0,44,30.16,10.0,WNW,4.6,-,N/A,,Unknown,290,2013-08-10 20:54:00
3:55 PM,73.4,49.6,43,30.16,10.0,WNW,3.5,-,N/A,,Unknown,290,2013-08-10 20:55:00
4:34 PM,73.4,48.2,41,30.15,10.0,NW,8.1,-,N/A,,Unknown,310,2013-08-10 21:34:00
4:35 PM,73.6,49.1,42,30.15,10.0,NW,8.1,-,N/A,,Unknown,310,2013-08-10 21:35:00
4:55 PM,74.1,50.5,43,30.15,10.0,NNW,8.1,-,N/A,,Unknown,330,2013-08-10 21:55:00
5:15 PM,73.4,50.0,44,30.15,10.0,NW,6.9,-,N/A,,Unknown,310,2013-08-10 22:15:00
5:34 PM,75.2,51.8,44,30.14,10.0,WNW,9.2,-,N/A,,Unknown,290,2013-08-10 22:34:00
5:35 PM,74.5,50.7,43,30.14,10.0,WNW,9.2,-,N/A,,Unknown,290,2013-08-10 22:35:00
5:55 PM,73.4,50.4,44,30.14,10.0,West,5.8,-,N/A,,Unknown,270,2013-08-10 22:55:00
6:15 PM,73.0,50.9,46,30.14,10.0,West,5.8,-,N/A,,Unknown,280,2013-08-10 23:15:00
6:16 PM,73.4,51.8,47,30.14,10.0,West,4.6,-,N/A,,Unknown,280,2013-08-10 23:16:00
6:34 PM,73.4,51.8,47,30.13,10.0,NNW,4.6,-,N/A,,Unknown,340,2013-08-10 23:34:00
6:56 PM,71.6,51.8,50,30.14,10.0,WNW,4.6,-,N/A,,Unknown,300,2013-08-10 23:56:00
7:14 PM,71.6,53.6,53,30.14,10.0,NW,3.5,-,N/A,,Unknown,320,2013-08-11 00:14:00
7:34 PM,69.8,53.6,56,30.13,10.0,Calm,Calm,-,N/A,,Unknown,0,2013-08-11 00:34:00
7:54 PM,66.2,53.6,64,30.13,10.0,Calm,Calm,-,N/A,,Unknown,0,2013-08-11 00:54:00
8:14 PM,62.6,55.4,77,30.13,10.0,Calm,Calm,-,N/A,,Unknown,0,2013-08-11 01:14:00
8:54 PM,59.0,53.6,82,30.14,10.0,Calm,Calm,-,N/A,,Unknown,0,2013-08-11 01:54:00
9:14 PM,57.2,53.6,88,30.14,10.0,Calm,Calm,-,N/A,,Unknown,0,2013-08-11 02:14:00
9:34 PM,57.2,55.4,94,30.14,10.0,Calm,Calm,-,N/A,,Unknown,0,2013-08-11 02:34:00
9:54 PM,57.2,55.4,94,30.13,10.0,ESE,3.5,-,N/A,,Unknown,110,2013-08-11 02:54:00
10:14 PM,57.2,55.4,94,30.13,10.0,Calm,Calm,-,N/A,,Unknown,0,2013-08-11 03:14:00
10:34 PM,55.4,53.6,94,30.12,10.0,Calm,Calm,-,N/A,,Unknown,0,2013-08-11 03:34:00
10:54 PM,53.6,51.8,94,30.13,10.0,Calm,Calm,-,N/A,,Unknown,0,2013-08-11 03:54:00
11:14 PM,53.6,51.8,94,30.13,10.0,Calm,Calm,-,N/A,,Unknown,0,2013-08-11 04:14:00
11:15 PM,52.7,50.9,94,30.13,10.0,Calm,Calm,-,N/A,,Unknown,0,2013-08-11 04:15:00
11:34 PM,53.6,51.8,94,30.14,10.0,Calm,Calm,-,N/A,,Unknown,0,2013-08-11 04:34:00
11:54 PM,51.8,50.0,94,30.14,10.0,Calm,Calm,-,N/A,,Unknown,0,2013-08-11 04:54:00